Location: Unspecified
(48.8582°N, 2.2947°E)
Time: 00:04:26
(UTC+02:00)

ISS - Pass Details

Date: 25 March 2019
Orbit: 408 x 410 km, 51.6° (Epoch: 23 April)

Event Time Altitude Azimuth Distance (km) Brightness Sun altitude
Rises 21:47:33 0° 271° (W) 2,335 0.9 -24.8°
Reaches altitude 10° 21:49:41 10° 276° (W) 1,474 -0.2 -25.1°
Enters shadow 21:51:32 29° 292° (WNW) 788 -1.8 -25.4°
